CW9119 Weather Reports


Display with metric or nautical units.
time (UTC)temp
F
wind
direction
speed
MPH
gust
MPH
rain 1hr
in
rain 24hr
in
rain mn
in
humidity
%
barometer
mb
20191117070113 48 65 5.0 20.0 0.00 0.01 0.01 95 1010.0
20191117065112 47 109 4.0 12.0 0.00 0.01 0.01 95 1010.1
20191117061112 47 70 3.0 16.0 0.00 0.01 0.01 95 1010.5
20191117060112 47 66 4.0 10.0 0.00 0.01 0.01 95 1010.5
20191117055111 47 67 3.0 8.0 0.00 0.01 0.01 94 1010.8
20191117053111 46 150 2.0 8.0 0.01 0.01 0.01 94 1011.0
20191117052111 46 65 4.0 10.0 0.01 0.01 0.01 94 1011.0
20191117051111 46 132 1.0 6.0 0.01 0.01 0.01 94 1011.2
20191117050111 46 28 2.0 8.0 0.01 0.01 0.01 93 1011.2
20191117043111 46 45 1.0 8.0 0.00 0.00 0.00 93 1011.6
20191117042111 45 76 0.0 4.0 0.00 0.00 0.00 93 1011.6
20191117041111 45 70 2.0 7.0 0.00 0.00 0.00 93 1011.7
20191117035111 45 113 2.0 10.0 0.00 0.00 0.00 93 1011.8
20191117034110 45 78 2.0 8.0 0.00 0.00 0.00 93 1011.9
20191117033110 45 73 1.0 4.0 0.00 0.00 0.00 93 1012.1
20191117023109 44 135 0.0 1.0 0.00 0.00 0.00 94 1012.1
20191117021109 45 138 0.0 2.0 0.00 0.00 0.00 94 1012.1
20191117015108 44 134 0.0 6.0 0.00 0.00 0.00 95 1012.2
20191117013108 44 154 4.0 14.0 0.00 0.00 0.00 95 1012.6
20191117011109 44 118 0.0 5.0 0.00 0.00 0.00 94 1012.4
20191117010108 44 134 0.0 0.0 0.00 0.00 0.00 95 1012.5
20191117004108 44 117 2.0 10.0 0.00 0.00 0.00 95 1012.2
20191117002108 45 139 4.0 10.0 0.00 0.00 0.00 95 1012.3
20191117001108 45 135 3.0 8.0 0.00 0.00 0.00 95 1012.4
20191117000108 45 107 3.0 12.0 0.00 0.00 0.00 95 1012.4
20191116224110 44 119 0.0 1.0 0.00 0.00 0.00 95 1012.7
20191116222110 44 134 1.0 11.0 0.00 0.00 0.00 95 1012.7
20191116215110 43 107 0.0 2.0 0.00 0.00 0.00 95 1012.4
20191116205110 42 146 0.0 0.0 0.00 0.00 0.00 95 1012.4
20191116204109 41 146 0.0 0.0 0.00 0.00 0.00 94 1012.2
20191116202109 41 146 0.0 0.0 0.00 0.00 0.00 94 1012.1
20191116201109 41 146 0.0 0.0 0.00 0.00 0.00 94 1012.0
20191116200109 41 146 0.0 0.0 0.00 0.00 0.00 94 1011.9
20191116193109 41 146 0.0 0.0 0.00 0.00 0.00 93 1011.6
20191116185109 41 157 0.0 0.0 0.00 0.00 0.00 92 1011.4
20191116184108 42 157 0.0 0.0 0.00 0.00 0.00 92 1011.4
20191116183108 42 157 0.0 0.0 0.00 0.00 0.00 92 1011.4
20191116182108 42 157 0.0 0.0 0.00 0.00 0.00 92 1011.0
20191116181108 42 157 0.0 0.0 0.00 0.00 0.00 92 1011.0
20191116172108 43 157 0.0 0.0 0.00 0.00 0.00 91 1010.5
20191116171108 44 157 0.0 1.0 0.00 0.00 0.00 90 1010.3
20191116170111 44 157 0.0 0.0 0.00 0.00 0.00 90 1010.3
20191116161111 46 157 0.0 0.0 0.00 0.00 0.00 88 1010.2
20191116153111 47 157 0.0 0.0 0.00 0.00 0.00 86 1009.5
20191116152111 47 157 0.0 0.0 0.00 0.00 0.00 86 1009.4
20191116151111 48 157 0.0 0.0 0.00 0.00 0.00 85 1009.0
20191116142110 49 157 0.0 0.0 0.00 0.00 0.00 84 1008.4
20191116140110 49 169 1.0 7.0 0.00 0.00 0.00 83 1008.3
20191116135110 49 168 2.0 7.0 0.00 0.00 0.00 83 1008.1
20191116132110 49 165 2.0 7.0 0.00 0.00 0.00 81 1007.8
20191116131110 49 154 5.0 11.0 0.00 0.00 0.00 81 1007.8
20191116130110 49 176 0.0 2.0 0.00 0.00 0.00 81 1007.4
20191116121109 49 161 4.0 11.0 0.00 0.00 0.00 84 1007.2
20191116120109 49 180 5.0 11.0 0.00 0.00 0.00 84 1007.0
20191116115110 49 142 5.0 10.0 0.00 0.00 0.00 83 1006.7
20191116112109 49 175 1.0 6.0 0.00 0.00 0.00 85 1006.7
20191116110109 49 138 6.0 11.0 0.00 0.00 0.00 86 1006.4
20191116105109 49 155 6.0 14.0 0.00 0.00 0.00 87 1006.5
20191116101108 48 132 5.0 12.0 0.00 0.00 0.00 90 1006.1
20191116095108 48 178 4.0 11.0 0.00 0.00 0.00 91 1006.0
20191116092108 47 163 2.0 7.0 0.00 0.00 0.00 92 1005.9
20191116082108 47 161 2.0 8.0 0.00 0.00 0.00 91 1005.3
20191116080111 47 164 3.0 7.0 0.00 0.00 0.00 91 1005.1
20191116075111 47 78 2.0 6.0 0.00 0.00 0.00 91 1005.3